[[{"header":{"parameterUnit":"m.s-1","parameterCategory":1,"la1":30.2992,"la2":30.254,"lo1":-89.0895,"lo2":-89.0443,"dy":0.0025,"dx":0.0025,"nx":19,"ny":19,"refTime":"2026-05-23T03:00:00:Z","depth":0,"parameterNumber":2,"parameterNumberName":"U-component_of_WINDS"},"data":[0,0,0,-3.6808,-3.6811,-3.6951,-3.6952,-3.7122,-3.7123,0,0,0,0,0,0,0,0,0,0,0,-3.6762,-3.6763,-3.6808,-3.6811,-3.6951,-3.6952,-3.7121,-3.7123,0,0,0,0,0,0,0,0,0,0,0,-3.6762,-3.6763,-3.6764,-3.6812,-3.6951,-3.6952,-3.7121,-3.7018,0,0,0,0,0,0,0,0,0,0,-3.6883,-3.6837,-3.6762,-3.6764,-3.6813,-3.6951,-3.6952,-3.7013,-3.7025,-3.7054,0,-3.7081,0,-3.7105,-3.7134,-3.7135,0,0,0,-3.6814,-3.6828,-3.687,-3.6764,-3.6814,-3.6951,-3.6889,-3.702,-3.7033,-3.7069,-3.7083,-3.709,-3.7108,-3.7135,-3.7136,-3.73,-3.73,0,0,-3.6806,-3.6785,-3.6861,-3.6878,-3.6857,-3.6884,-3.6893,-3.7028,-3.7041,-3.7084,-3.7094,-3.711,-3.7136,-3.7137,-3.7299,-3.73,0,0,0,-3.6782,-3.6779,-3.6818,-3.6871,-3.6897,-3.6888,-3.6899,-3.7035,-3.705,-3.7096,-3.7112,-3.7137,-3.7139,-3.7298,-3.7299,-3.7307,0,0,0,-3.6778,-3.6765,-3.6814,-3.6802,-3.6894,-3.6968,-3.6903,-3.704,-3.7056,-3.7112,-3.7137,-3.7141,-3.7298,-3.7299,-3.7306,-3.7314,0,0,0,-3.6754,-3.6762,-3.6781,-3.6801,-3.6861,-3.6966,-3.6989,-3.7044,-3.7066,-3.7135,-3.7141,-3.7297,-3.7299,-3.7304,-3.7312,-3.7349,0,0,0,-3.6723,-3.6787,-3.6781,-3.6859,-3.6859,-3.6972,-3.6988,-3.7073,-3.7133,-3.7138,-3.7298,-3.7299,-3.7304,-3.731,-3.7347,-3.7374,-3.7384,0,0,-3.6792,-3.6795,-3.6842,-3.6841,-3.6949,-3.6952,-3.7061,-3.7136,-3.7162,-3.7252,-3.7256,-3.7306,-3.7311,-3.7348,-3.7453,-3.7461,0,0,0,-3.6857,-3.689,-3.6924,-3.698,-3.704,-3.7091,-3.7152,-3.718,-3.7257,-3.7205,-3.7332,-3.7336,-3.7358,-3.7372,-3.7379,-3.7398,-3.7305,-3.7305,-3.7305,-3.692,-3.6951,-3.7032,-3.7079,-3.7134,-3.7196,-3.7243,-3.7291,-3.7306,-3.7336,-3.7361,-3.7421,-3.7436,-3.7441,-3.7461,-3.7381,-3.7381,-3.7381,-3.7381,-3.7021,-3.7072,-3.7092,-3.7176,-3.7208,-3.7279,-3.7342,-3.735,-3.742,-3.7405,-3.7426,-3.7403,-3.7449,-3.7468,-3.7382,-3.7382,-3.7382,-3.7381,-3.7381,-3.7064,-3.7094,-3.7127,-3.7211,-3.7273,-3.7319,-3.7385,-3.7412,-3.7438,-3.746,-3.7488,-3.7488,-3.7489,-3.7472,-3.7472,-3.7473,-3.7473,-3.7473,-3.7473,-3.7093,-3.7131,-3.7183,-3.7252,-3.7291,-3.7347,-3.7411,-3.745,-3.75,-3.7514,-3.7515,-3.7525,-3.7449,-3.7428,-3.7476,-3.7476,-3.7475,-3.7475,-3.7475,-3.7178,-3.7164,-3.7244,-3.7283,-3.7366,-3.7423,-3.7459,-3.7536,-3.7572,-3.7603,-3.7611,-3.7551,-3.7555,-3.755,-3.7532,-3.7605,-3.7605,-3.7605,-3.7605,-3.7212,-3.7218,-3.7305,-3.7366,-3.7429,-3.7469,-3.7556,-3.7607,-3.7657,-3.7681,-3.7675,-3.7655,-3.7649,-3.7657,-3.765,-3.7633,-3.773,-3.773,-3.773,-3.7264,-3.7278,-3.7347,-3.7396,-3.7463,-3.7519,-3.7602,-3.7669,-3.7723,-3.7736,-3.77,-3.7694,-3.7662,-3.7651,-3.7658,-3.7646,-3.7617,0,0]},{"header":{"parameterUnit":"m.s-1","parameterCategory":1,"la1":30.2992,"la2":30.254,"lo1":-89.0895,"lo2":-89.0443,"dy":0.0025,"dx":0.0025,"nx":19,"ny":19,"refTime":"2026-05-23T03:00:00:Z","depth":0,"parameterNumber":3,"parameterNumberName":"V-component_of_WINDS"},"data":[0,0,0,1.2749,1.275,1.2792,1.2792,1.2812,1.2812,0,0,0,0,0,0,0,0,0,0,0,1.2714,1.2713,1.2749,1.275,1.2792,1.2792,1.2812,1.2812,0,0,0,0,0,0,0,0,0,0,0,1.2714,1.2713,1.2713,1.275,1.2792,1.2792,1.2812,1.2793,0,0,0,0,0,0,0,0,0,0,1.2758,1.2702,1.2714,1.2713,1.275,1.2792,1.2792,1.2793,1.2794,1.2778,0,1.2756,0,1.2784,1.2811,1.2811,0,0,0,1.2767,1.2701,1.2733,1.2712,1.275,1.2792,1.2778,1.2794,1.2796,1.278,1.2756,1.2758,1.2784,1.2811,1.2811,1.2657,1.2656,0,0,1.2765,1.2709,1.2732,1.2733,1.2722,1.2776,1.2779,1.2796,1.2767,1.2756,1.2759,1.2785,1.2811,1.2811,1.2659,1.2657,0,0,0,1.2746,1.2707,1.274,1.2731,1.2741,1.2777,1.278,1.2766,1.2781,1.276,1.2785,1.2811,1.2811,1.2661,1.2658,1.2527,0,0,0,1.2746,1.2696,1.2738,1.2704,1.274,1.2754,1.2749,1.278,1.2784,1.2785,1.2811,1.2811,1.2662,1.2659,1.2535,1.2474,0,0,0,1.2719,1.2694,1.2692,1.2701,1.2717,1.2755,1.2772,1.2782,1.2798,1.2811,1.2811,1.2663,1.266,1.2541,1.2485,1.2417,0,0,0,1.2674,1.2574,1.2689,1.2587,1.2716,1.2674,1.2772,1.2743,1.2739,1.2811,1.2662,1.2658,1.2543,1.2491,1.2424,1.2348,1.2312,0,0,1.2517,1.2553,1.2498,1.2602,1.2524,1.2672,1.2577,1.2625,1.2678,1.2662,1.2659,1.2532,1.2485,1.2418,1.2133,1.2103,0,0,0,1.2429,1.2389,1.2381,1.2374,1.2409,1.2435,1.2505,1.2524,1.2513,1.2658,1.2493,1.2466,1.2429,1.2396,1.2371,1.2343,1.2641,1.2641,1.2642,1.2123,1.2198,1.2112,1.2192,1.2185,1.226,1.2262,1.2301,1.2376,1.2337,1.2331,1.2148,1.2107,1.2089,1.2059,1.2299,1.2299,1.2298,1.2298,1.1898,1.1852,1.1959,1.1914,1.1994,1.1958,1.2029,1.2085,1.2065,1.2158,1.2129,1.2222,1.2054,1.2032,1.2289,1.2291,1.2292,1.2293,1.2293,1.1703,1.1695,1.1721,1.1721,1.1714,1.1801,1.1777,1.1852,1.1922,1.1894,1.1897,1.1899,1.191,1.1891,1.189,1.189,1.1889,1.1889,1.1888,1.149,1.1524,1.1493,1.1526,1.1534,1.1554,1.1633,1.1643,1.1674,1.173,1.1731,1.1811,1.2025,1.2076,1.1879,1.188,1.1882,1.1883,1.1883,1.1228,1.1301,1.1253,1.126,1.1308,1.1297,1.1396,1.1411,1.1432,1.1418,1.1508,1.1654,1.1696,1.1716,1.1758,1.1491,1.1491,1.1491,1.1491,1.1062,1.1093,1.1063,1.1071,1.1088,1.1173,1.1121,1.1184,1.126,1.1278,1.1329,1.1393,1.1411,1.1443,1.1469,1.151,1.1185,1.1185,1.1184,1.0905,1.0942,1.088,1.0955,1.1,1.1036,1.099,1.0998,1.11,1.1174,1.1294,1.1307,1.1412,1.1442,1.1512,1.1551,1.1628,0,0]}]]